Winter Haven, FL

9:12 AM EDT on September 28, 2016 (GMT -0400)
Winter Haven's-Gilbert

Weather History for KGIF - October, 2011

Change the Weather History Date:

Friday, October 28, 2011

  Actual Average Record
Temperature  
Mean Temperature 70 °F -  
Max Temperature 73 °F 82 °F 91 °F (2010)
Min Temperature 68 °F 62 °F 44 °F (1957)
Cooling Degree Days 6    
Growing Degree Days 20 (Base 50)    
Moisture  
Dew Point 68 °F    
Average Humidity 89    
Maximum Humidity 96    
Minimum Humidity 79    
Precipitation  
Precipitation 0.12 in - - ()
Sea Level Pressure  
Sea Level Pressure 29.93 in    
Wind  
Wind Speed 4 mph (ENE)    
Max Wind Speed 8 mph    
Max Gust Speed -    
Visibility 9 miles    
Events Rain    
Averages and records for this station are not official NWS values.
T = Trace of Precipitation, MM = Missing Value Source: NWS Daily Summary

Daily Weather History Graph

Daily Weather History Graph

Search for Another Location

Airport or City:

Trip Planner

Search our weather history database for the weather conditions in past years. The results will help you decide how hot, cold, wet, or windy it might be!

Date:

Astronomy

Oct. 28, 2011 Rise Set
Actual Time 7:35 AM EDT 6:45 PM EDT
Civil Twilight 7:11 AM EDT 7:09 PM EDT
Nautical Twilight 6:43 AM EDT 7:37 PM EDT
Astronomical Twilight 6:16 AM EDT 8:04 PM EDT
Moon 9:35 AM EDT 8:22 PM EDT
Length of Visible Light 11h 58m
Length of Day
11h 10m
Waxing Crescent, 5% of the Moon is Illuminated
Oct 28
Waxing Crescent
Nov 2
First Quarter
Nov 10
Full
Nov 18
Last Quarter
Nov 25
New

Hourly Weather History & Observations

Time (EDT) Temp. Dew Point Humidity Pressure Visibility Wind Dir Wind Speed Gust Speed Precip Events Conditions
12:53 AM 71.1 °F 64.9 °F 81% 29.96 in 10.0 mi NE 3.5 mph - N/A   Partly Cloudy
1:53 AM 71.1 °F 66.0 °F 84% 29.96 in 10.0 mi Calm Calm - 0.01 in Rain Light Rain
2:53 AM 70.0 °F 66.0 °F 87% 29.96 in 10.0 mi Calm Calm - 0.00 in   Clear
3:53 AM 70.0 °F 66.0 °F 87% 29.94 in 10.0 mi NNE 4.6 mph - 0.00 in   Clear
4:53 AM 69.1 °F 66.9 °F 93% 29.95 in 10.0 mi Calm Calm - 0.00 in   Partly Cloudy
5:53 AM 69.1 °F 66.0 °F 90% 29.94 in 10.0 mi NE 3.5 mph - 0.00 in   Scattered Clouds
6:53 AM 69.1 °F 66.0 °F 90% 29.96 in 10.0 mi NNE 3.5 mph - 0.04 in Rain Light Rain
7:53 AM 68.0 °F 66.0 °F 93% 29.97 in 10.0 mi NE 5.8 mph - N/A Rain Light Rain
8:53 AM 69.1 °F 64.9 °F 87% 29.97 in 10.0 mi NE 4.6 mph - N/A   Partly Cloudy
9:53 AM 70.0 °F 66.0 °F 87% 29.99 in 10.0 mi ENE 6.9 mph - N/A   Unknown
10:53 AM 71.1 °F 66.0 °F 84% 29.98 in 10.0 mi NE 5.8 mph - N/A   Clear
11:53 AM 73.9 °F 66.9 °F 79% 29.98 in 10.0 mi NE 6.9 mph - N/A   Clear
1:53 PM 73.9 °F 66.9 °F 79% 29.94 in 10.0 mi ENE 5.8 mph - N/A   Overcast
2:53 PM 73.9 °F 68.0 °F 82% 29.92 in 9.0 mi ENE 4.6 mph - 0.00 in Rain Light Rain
3:53 PM 72.0 °F 69.1 °F 91% 29.91 in 6.0 mi NE 4.6 mph - 0.03 in Rain Light Rain
4:53 PM 72.0 °F 69.1 °F 91% 29.90 in 8.0 mi NE 4.6 mph - 0.01 in Rain Light Rain
5:53 PM 71.1 °F 68.0 °F 90% 29.89 in 8.0 mi NNE 4.6 mph - 0.02 in Rain Light Rain
6:53 PM 71.1 °F 69.1 °F 93% 29.90 in 9.0 mi East 8.1 mph - 0.00 in Rain Light Rain
7:53 PM 71.1 °F 69.1 °F 93% 29.91 in 10.0 mi East 6.9 mph - 0.00 in   Overcast
9:53 PM 71.1 °F 69.1 °F 93% 29.91 in 10.0 mi ENE 6.9 mph - N/A   Mostly Cloudy
10:03 PM 71.6 °F 69.8 °F 94% 29.92 in 10.0 mi ENE 5.8 mph - N/A   Mostly Cloudy
10:14 PM 71.6 °F 69.8 °F 94% 29.92 in 10.0 mi ENE 6.9 mph - N/A   Mostly Cloudy
10:53 PM 71.1 °F 69.1 °F 93% 29.91 in 10.0 mi East 6.9 mph - N/A   Scattered Clouds
11:31 PM 71.6 °F 69.8 °F 94% 29.91 in 8.0 mi East 5.8 mph - 0.01 in   Mostly Cloudy
11:43 PM 71.6 °F 69.8 °F 94% 29.91 in 8.0 mi East 5.8 mph - 0.01 in   Mostly Cloudy
11:53 PM 71.1 °F 70.0 °F 96% 29.90 in 8.0 mi East 6.9 mph - 0.01 in   Overcast